sat.trackr.live / text

‹ back to catalog

STARLINK-31341

NORAD 59155 · 2024-044D

PAYLOAD ACTIVE UNKNOWN

§ Identity

Operator
Country
US
Launch date
2024-03-04
Launch site
AFETR
Launch vehicle
Mass (kg)
RCS (m²)

Purposes: comms

External: N2YO · Heavens-Above · Gunter

§ Orbital elements

Epoch: 2026-05-25T03:12:42.721920Z

Period
94.27 min
Inclination
43.0034°
Eccentricity
0.0000725
Mean motion
15.27590471 rev/d
Perigee alt
482.5 km
Apogee alt
483.5 km
Semi-major
6,861.2 km
B*
4.7033e-5
RAAN
39.0232°
Arg perigee
290.4716°
Mean anomaly
69.6058°
Rev number
12,521

§ Raw data

STARLINK-313411 59155U 24044D   26145.13382780  .00001033  00000+0  47033-4 0  99962 59155  43.0034  39.0232 0000725 290.4716  69.6058 15.27590471125219

JSON: /api/v1/satellites/59155 · /tle

For live sub-satellite position, see the globe view (requires WebGL).

§ Visibility from observer

Set your observer location to see the next 7 days of passes ≥ 10°. The values pass through the URL so the page stays shareable.

No JS? Fill the form by hand. The geolocation button needs JavaScript.